Location: Lombard
(41.8800°N, 88.0080°W)
Time: 14:42:52
(UTC-06:00)

A-11 Canister half - Pass Details

Date: 06 February 2023
Orbit: 1514 x 1685 km, 47.2° (Epoch: 29 November)

Event Time Altitude Azimuth Distance (km) Brightness Sun altitude
Rises 15:19:12 0° 295° (WNW) 4,755 11.9 17.4°
Reaches altitude 10° 15:22:18 10° 295° (WNW) 3,748 11.5 17.0°
Maximum altitude 15:31:46 84° 209° (SSW) 1,537 9.4 15.6°
Drops below altitude 10° 15:41:00 10° 122° (ESE) 3,667 10.8 14.3°
Sets 15:44:00 0° 122° (ESE) 4,647 11.3 13.8°
